Location: Poprad
(49.0500°N, 20.3000°E)
Time: 10:57:57
(UTC+02:00)

AO-73 - Pass Details

Date: 01 May 2024
Orbit: 559 x 625 km, 97.7° (Epoch: 29 May)

Event Time Altitude Azimuth Distance (km) Brightness Sun altitude
Rises 03:54:54 0° 13° (NNE) 2,926 ? -12.2°
Reaches altitude 10° 03:57:07 10° 15° (NNE) 2,015 ? -11.9°
Maximum altitude 04:01:31 84° 102° (ESE) 637 ? -11.3°
Drops below altitude 10° 04:05:52 10° 192° (SSW) 1,987 ? -10.8°
Enters shadow 04:06:15 - 193° (SSW) 2,141 ? -10.7°
